Geely Xingzuo 04 zu 07 xing

operational
NORAD ID: 65125 Int'l Des: 2025-170 Owner: GEESP Country: CN Constellation: geesatcom
LEOCIRCULAR

About Geely Xingzuo 04 zu 07 xing

Description loading...

Live Position

Loading 3D Globe...

Upcoming Passes

Altitude History

Altitude vs Time

uPlot chart will show altitude changes over time

Two-Line Element Set

1 65125U 25170G 25311.09378897 .00003826 00000-0 44851-3 0 9991
2 65125 49.9902 123.8608 0017556 287.2000 72.7018 14.86894492 13458
Epoch: Nov 7, 2025 • Age: 14 hours

Current Status

Altitude 611.4 km
Velocity 7.56 km/s
Sub-Earth Point -47.67°S, 121.04°E
Launch Date Aug 8, 2025
Age 0.2 years
Type other

Technical Details

Classification Payload
Mass 130.00 kg
Dry Mass 130.00 kg
Total Mass 130.00 kg
Length 1.00 m
Diameter 0.50 m
Span 2.00 m
Shape Box + 2 pan
Manufacturer GWCG
Bus Type GPS100
Phase Status In Orbit
Owner/State GEESP/CN

Large Constellations

Loading constellations...